CAPE
3 1 0 0 0 1 8 13 4 10 10 8 13 15 23 30 35 26 1 0 0 0 0 0 0 12 10 19 13 2 0 0 0 0 23 16 14 7 0 13 6 8 5 3 0 0 5 0 0 0 0 0 0 0
1 0 0 0 0 4 10 7 10 9 2 6 11 18 24 28 28 21 4 1 0 0 0 0 0 0 0 1 8 15 4 0 0 0 0 1 4 0 2 47 1 2 2 9 1 3 0 0 0 0 0 0 0 0
0 0 0 0 2 10 6 9 9 7 6 9 17 23 24 22 17 14 3 0 0 0 0 0 0 9 1 15 2 6 10 3 0 0 0 0 1 0 0 0 0 0 0 0 0 0 0 0 0 0 0 0 0 0
0 0 0 0 7 5 7 4 6 4 7 14 19 17 15 9 3 0 0 0 0 0 0 0 0 0 0 0 2 4 4 0 0 0 0 0 0 2 0 0 0 5 0 7 0 0 0 0 0 0 0 0 0 0
0 0 0 3 4 4 1 3 4 6 11 13 8 5 0 0 0 0 0 0 0 0 0 0 0 0 0 0 0 0 0 3 8 4 1 2 11 1 0 0 1 11 17 15 4 0 1 0 0 0 0 0 0 0
0 0 0 3 1 1 1 1 4 7 6 4 0 0 0 0 0 3 0 0 0 0 0 0 0 0 0 0 0 0 0 0 5 3 5 4 5 2 0 0 0 1 0 2 1 0 0 0 0 0 0 0 0 0
0 0 2 2 3 1 1 2 4 5 1 1 0 0 0 0 0 0 0 0 0 0 0 0 0 0 0 0 0 0 0 0 2 4 2 8 5 8 0 0 0 16 2 2 2 5 0 0 1 0 0 0 0 0
0 0 4 1 1 1 0 1 5 6 0 0 0 0 0 0 0 0 0 0 0 0 0 0 0 0 0 0 0 0 0 0 0 1 1 2 3 1 0 0 7 10 4 0 4 0 0 0 0 0 0 0 0 0
0 0 3 0 0 0 0 1 3 2 0 0 0 0 0 0 0 0 0 0 0 0 0 0 0 5 0 0 0 0 0 0 1 1 1 1 0 0 0 3 5 34 11 6 5 3 2 10 14 0 0 0 0 0
0 0 0 2 1 0 0 1 2 0 0 0 0 0 0 0 0 0 0 0 0 0 0 0 0 0 0 0 0 0 1 0 0 0 2 2 7 12 24 6 0 27 21 17 12 9 8 12 11 10 13 5 0 0
0 0 0 0 1 2 1 0 0 0 0 0 0 0 0 0 0 0 0 0 0 0 0 0 0 0 0 0 0 0 0 0 0 0 0 2 5 22 26 1 0 0 32 14 19 18 18 24 20 7 9 12 11 7
0 0 0 0 0 1 0 0 0 0 0 0 0 0 0 0 0 0 0 11 32 34 22 27 1 0 4 0 0 0 0 1 0 0 0 6 20 20 3 9 0 0 14 6 16 20 13 21 25 23 18 9 9 11
0 0 0 0 0 0 0 0 0 0 0 0 0 0 48 1 0 24 10 0 1 0 0 10 90 29 0 0 7 11 3 12 0 0 2 30 11 6 9 2 0 0 0 13 0 0 0 0 2 0 3 9 4 7
0 0 1 1 0 0 0 0 0 0 0 0 196 4 0 0 4 0 0 0 0 0 0 0 86 78 3 45 0 25 0 0 0 0 0 4 6 1 1 3 0 0 0 0 14 0 0 0 0 0 0 0 0 1
0 0 0 0 0 0 0 0 0 0 0 158 6 14 16 0 0 0 0 0 0 0 0 0 70 0 0 0 0 2 0 1 0 0 2 2 4 0 0 0 2 10 0 0 0 8 7 0 0 0 0 0 0 0
1 0 0 0 0 0 0 0 0 0 22 166 15 0 0 0 0 0 0 0 0 0 0 0 0 0 0 0 0 0 0 0 0 4 0 0 5 0 0 0 0 16 0 0 0 1 32 43 23 15 12 6 6 4
0 0 0 0 0 0 0 0 78 254 114 19 20 0 0 0 0 0 0 0 0 0 0 0 0 0 0 0 0 0 0 0 0 0 0 0 9 4 0 0 7 0 0 0 0 1 0 33 3 0 0 0 1 20
0 0 0 0 0 0 5 0 205 6 21 0 0 0 3 0 0 0 0 0 0 0 0 0 0 0 0 0 0 0 0 0 0 0 0 7 10 5 3 9 0 0 0 0 0 0 0 0 0 0 0 0 0 0
0 0 0 0 0 0 101 214 21 281 95 3 0 0 0 0 0 0 0 0 0 0 0 0 0 0 0 0 0 0 0 0 0 0 0 0 0 0 0 0 0 0 0 0 0 0 0 0 0 0 0 0 0 0
0 0 0 0 0 2 631 140 34 237 317 8 0 0 0 0 0 0 0 0 0 0 0 0 0 0 0 0 0 0 0 0 0 0 0 0 0 0 0 0 0 0 0 0 0 0 0 0 0 0 0 0 0 0
0 0 0 0 0 0 305 0 9 53 0 20 13 30 53 22 119 0 0 0 0 0 0 0 0 0 0 0 0 0 0 0 0 0 0 0 0 0 0 0 0 0 0 0 0 0 0 0 0 0 0 0 0 0
0 0 0 1 179 648 159 30 0 0 90 16 153 104 84 139 77 0 0 0 0 0 0 0 0 0 0 0 0 0 0 0 0 0 0 0 0 0 0 0 0 0 0 0 0 0 0 0 0 0 0 0 0 0
0 0 120 297 507 0 0 0 64 200 259 25 48 37 25 40 3 0 0 0 0 0 0 0 0 0 0 0 1 0 0 0 0 0 0 0 0 0 0 0 0 0 0 0 0 0 0 0 0 0 0 0 0 0
0 61 437 443 34 1 1 285 388 283 4 0 1 33 34 0 0 0 28 0 0 0 0 0 0 0 0 0 0 0 0 0 0 0 0 0 0 0 0 0 0 0 0 0 0 0 0 0 0 0 0 0 0 0
147 37 4 21 0 3 27 66 8 0 0 0 0 1 0 0 0 0 0 0 0 0 0 0 0 0 0 0 0 0 0 0 0 0 0 0 0 0 0 0 0 0 0 0 0 0 0 0 0 0 0 0 0 0
441 12 0 68 235 114 128 38 3 0 0 0 0 12 3 0 28 0 0 1 0 0 0 0 0 0 0 0 0 0 0 0 0 0 0 0 0 0 0 0 0 0 0 0 0 0 0 0 0 0 0 0 0 0
22 0 0 0 11 2 0 0 0 0 60 16 20 66 63 31 1 0 0 0 2 2 0 0 0 0 0 0 0 0 0 0 0 0 0 0 0 0 0 0 0 0 0 0 0 0 0 0 0 0 0 0 0 0
347 279 282 284 166 0 1 0 0 0 58 44 15 12 65 22 0 0 0 5 0 1 0 0 0 0 0 0 0 0 0 0 0 0 0 0 0 0 0 0 0 0 0 0 0 0 0 0 0 0 0 0 0 0
294 236 257 141 366 16 17 0 12 1 31 120 31 1 0 2 0 0 0 0 14 4 0 0 0 0 0 0 0 0 0 0 0 0 0 0 0 0 0 0 0 0 0 0 0 0 0 0 0 0 0 0 0 0
229 218 204 364 195 191 333 20 89 0 0 0 0 0 0 0 0 0 0 0 0 0 0 0 0 0 0 0 0 0 0 0 0 0 0 0 0 0 0 0 0 0 0 0 0 0 0 0 0 0 0 0 0 0
90 122 45 14 21 101 122 61 0 0 0 0 0 0 23 0 0 0 0 0 0 0 0 0 0 0 0 0 0 0 0 0 0 0 0 0 0 0 0 0 0 0 0 0 0 0 0 0 0 0 0 0 0 0
235 225 98 174 184 130 80 125 2 0 0 0 0 49 16 0 23 0 0 0 0 0 0 0 0 0 0 0 0 0 0 0 0 0 0 0 0 0 0 0 0 0 0 0 0 0 0 0 0 0 0 0 0 2
375 147 144 131 144 86 75 44 89 0 2 0 0 19 112 9 0 0 0 0 0 0 0 0 0 0 0 0 0 0 0 0 0 0 0 0 0 0 0 0 0 0 0 0 0 0 0 0 0 0 0 0 0 0
CIN
0 0 0 0 0 0 0 0 0 0 0 0 0 0 0 0 0 -1 -4 0 0 0 0 0 -2 0 0 0 0 0 0 0 0 0 -1 0 0 -1 0 0 0 0 0 0 0 0 0 0 0 0 0 0 0 0
0 0 0 0 0 0 0 0 0 0 0 0 0 0 0 0 0 -1 0 0 0 0 0 0 0 0 0 -8 -2 -1 0 -1 -1 0 0 0 0 0 -5 0 0 -1 -4 0 0 0 -1 0 -4 0 0 0 0 0
0 0 0 0 0 0 0 0 0 0 0 0 0 0 0 0 -1 -1 -6 0 0 0 0 0 -13 -23 -22 -7 -9 -1 -1 -2 0 0 0 -9 -3 0 0 0 0 0 0 0 0 0 0 0 0 0 0 0 0 0
0 0 0 0 0 0 0 0 0 0 -1 0 0 0 -1 -8 -1 0 -2 0 0 -1 0 0 0 0 0 -4 -4 -19 -8 -4 -1 0 0 0 -3 -4 -1 0 0 0 0 0 0 0 0 0 0 0 0 0 0 0
0 0 0 0 0 0 0 0 0 0 0 0 0 0 0 0 0 0 0 0 0 0 0 0 0 0 0 0 0 0 0 -4 -1 -1 0 0 0 0 0 0 0 0 0 0 0 0 0 0 0 0 0 0 0 0
0 0 0 0 0 0 0 0 0 0 0 0 0 0 0 0 0 -1 0 0 0 0 0 0 0 0 0 0 0 0 0 0 0 0 0 0 0 0 0 0 0 0 0 0 0 0 0 0 0 0 0 0 0 0
0 0 0 0 0 0 0 0 0 -1 0 0 0 0 0 0 0 0 0 0 0 0 0 0 0 0 0 0 0 0 0 0 0 0 0 0 0 0 0 0 0 0 -1 0 0 0 0 -1 -1 0 0 0 0 0
0 0 0 0 0 0 0 0 -1 -2 0 0 0 0 0 0 0 0 0 0 0 0 0 0 0 0 0 0 0 0 0 0 0 0 0 0 0 0 0 0 -1 0 0 0 0 -1 0 0 0 0 0 0 0 0
0 0 0 0 0 0 0 0 -1 -1 0 0 0 0 0 0 0 0 0 0 0 0 0 0 0 0 0 0 0 0 0 0 0 0 0 0 0 0 -10 -12 -5 0 0 0 0 0 -1 -1 -1 -2 0 0 0 0
0 0 0 0 0 0 0 -1 -1 0 0 0 0 0 0 0 0 0 0 0 0 0 0 0 0 0 0 0 0 0 0 0 0 0 0 0 0 -6 -6 -31 0 -7 0 0 0 0 0 -3 0 0 0 0 0 0
0 0 0 0 0 0 0 0 0 0 0 0 0 0 0 0 0 0 0 0 0 0 0 0 0 0 0 0 0 0 -16 0 0 0 0 0 0 -7 -27 -13 0 0 -6 -3 -5 -3 -1 0 0 0 0 0 0 0
0 0 0 0 0 0 0 0 0 0 0 0 0 0 0 0 0 0 -5 -121 -95 -35 -91 -148 -89 0 -67 0 0 0 0 -29 -1 0 0 -2 -11 -19 -48 -30 0 0 -23 -21 -19 -13 -3 0 0 0 0 0 0 0
0 0 0 0 0 0 0 0 0 0 0 0 0 0 -124 -18 -15 -9 -7 -2 -7 0 0 -79 -38 -118 0 0 -102 -63 -22 -17 0 0 -1 -4 -22 -32 -50 -55 0 0 0 -34 -1 0 0 0 -6 0 0 0 0 0
0 0 0 0 0 0 0 0 0 0 0 0 -104 -22 -1 -1 -36 -2 0 0 0 0 0 0 -27 -41 -76 -61 0 -9 0 0 0 0 0 -44 -32 -25 -62 -61 0 -5 0 0 -38 0 0 0 0 0 0 0 0 0
0 0 0 0 0 0 0 0 0 0 0 -183 -56 -32 -17 -19 0 0 0 0 0 0 0 0 -33 0 0 0 0 -15 0 -3 0 -1 -37 -57 -27 0 0 0 -64 -56 0 0 0 -60 -50 -17 0 0 0 0 0 0
0 0 0 0 0 0 0 0 0 0 -212 -138 -90 -4 0 0 0 0 0 0 0 0 0 0 0 0 0 0 0 0 0 -1 0 -19 0 0 -61 0 0 0 -27 -79 0 0 0 -21 -44 -26 -32 -32 -24 -37 -24 -22
0 0 0 0 0 0 0 0 -295 -179 -107 -78 -62 -5 0 0 0 0 0 0 0 0 0 0 0 0 0 0 0 0 0 0 0 0 0 0 -29 -50 -29 -7 -97 0 0 0 0 -39 -2 -29 -3 0 0 0 -4 -23
0 0 0 0 0 0 -63 0 -102 -43 -62 0 -17 -18 -91 0 0 0 0 0 0 0 0 0 0 0 0 0 0 0 0 0 0 0 0 -64 -60 -88 -92 -82 0 0 -6 0 0 0 0 0 0 0 0 0 0 0
0 0 0 0 0 0 -185 -64 -81 -16 -41 -47 0 0 0 0 0 0 0 0 0 0 0 0 0 0 0 0 0 0 0 0 0 0 0 0 0 0 0 0 0 0 0 0 0 0 0 0 0 0 0 0 0 0
0 0 0 0 0 -152 -50 -58 -182 -45 -17 -36 0 0 0 0 0 0 0 0 0 0 0 0 0 0 0 0 0 0 0 0 0 0 0 0 0 0 0 0 0 0 0 0 0 0 0 0 0 0 0 0 0 0
0 0 0 0 0 0 -106 -2 -91 -78 -1 -53 -100 -102 -48 -105 -33 0 0 0 0 0 0 0 0 0 0 0 0 0 0 0 0 0 0 0 0 0 0 0 0 0 0 0 0 0 0 0 0 0 0 0 0 0
0 0 0 -67 -113 -71 -73 -123 0 0 -56 -81 -59 -76 -53 -41 -63 -5 0 0 0 0 0 0 0 0 0 0 0 0 0 0 0 0 0 0 0 0 0 0 0 0 0 0 0 0 0 0 0 0 0 0 0 0
0 0 -51 -88 -17 0 -2 -20 -52 -54 -20 -70 -58 -27 -70 -182 -215 0 0 0 0 0 0 0 0 0 0 0 -42 0 0 0 0 0 0 0 0 0 0 0 0 0 0 0 0 0 0 0 0 0 0 0 0 0
0 -127 -41 -33 -29 -20 -24 -36 -46 -90 -40 0 -7 -32 -76 0 0 0 -18 -10 0 0 0 0 0 0 0 0 0 0 0 0 0 0 0 0 0 0 0 0 0 0 0 0 0 0 0 0 0 0 0 0 0 0
-83 -37 -5 -67 0 -31 -75 -38 -43 0 0 0 0 -4 0 0 0 0 0 0 0 -3 0 0 0 0 0 0 0 0 0 0 0 0 0 0 0 0 0 0 0 0 0 0 0 0 0 0 0 0 0 0 0 0
-21 -44 0 -69 -32 -50 -26 -113 -96 0 -81 0 0 -61 -195 0 -95 0 0 -8 -17 0 0 0 0 0 0 0 0 0 0 0 0 0 0 0 0 0 0 0 0 0 0 0 0 0 0 0 0 0 0 0 0 0
-111 0 0 0 -72 -132 0 0 0 0 -120 -72 -123 -33 -60 -31 -40 0 0 0 -109 -146 0 0 0 0 0 0 0 0 0 0 0 0 0 0 0 0 0 0 0 0 0 0 0 0 0 0 0 0 0 0 0 0
-55 -37 -28 -28 -99 0 -119 -32 0 0 -74 -140 -26 0 -14 -11 -2 0 0 -144 -24 -14 0 0 0 0 0 0 0 0 0 0 0 0 0 0 0 0 0 0 0 0 0 0 0 0 0 0 0 0 0 0 0 0
-89 -73 -50 -34 -58 -18 -172 0 -188 -49 -157 -130 -127 0 0 -141 0 0 0 0 -91 -138 0 0 0 0 0 0 0 0 0 0 0 0 0 0 0 0 0 0 0 0 0 0 0 0 0 0 0 0 0 0 0 0
-62 -67 -31 -29 -46 -51 -52 -223 -135 0 0 0 0 0 0 0 0 -58 0 0 0 0 0 0 0 0 0 0 0 0 0 0 0 0 0 0 0 0 0 0 0 0 0 0 0 0 0 0 0 0 0 0 0 0
-76 -62 -53 -80 -69 -49 -67 -166 0 0 0 0 0 0 -180 0 0 0 0 0 0 0 0 0 0 0 0 0 0 0 0 0 0 0 0 0 0 0 0 0 0 0 0 0 0 0 0 0 0 -7 0 -5 0 0
-44 -25 -48 -40 -28 -59 -91 -64 -61 0 0 0 0 -162 -157 0 -43 0 0 0 0 0 0 0 0 0 0 0 0 0 0 0 0 0 0 0 0 0 0 0 0 0 0 0 0 0 0 0 0 -1 -1 -11 -16 -13
-40 -52 -71 -68 -38 -14 -28 -20 -50 0 -22 0 -29 -146 -52 -25 0 0 0 0 0 0 0 0 0 0 0 0 0 0 0 0 0 0 0 0 0 0 0 0 0 0 0 0 0 0 0 0 -1 0 -8 0 0 0
Wind_Speed
14 16 18 18 18 18 18 19 20 18 17 16 15 14 13 11 9 1 2 6 4 2 4 4 6 8 6 4 2 4 5 6 5 6 4 5 4 4 2 4 3 3 2 4 8 7 6 17 12 11 5 10 17 14
16 16 18 19 18 18 18 18 17 16 17 15 14 14 12 9 6 2 2 2 2 0 5 3 7 10 9 11 4 1 2 2 3 4 4 3 2 5 7 4 7 5 4 1 4 3 5 1 4 4 8 10 14 16
16 18 19 19 18 17 18 17 17 16 16 15 14 13 10 5 3 4 2 2 2 0 4 3 4 4 4 2 4 3 2 1 2 4 3 3 4 5 5 4 4 11 13 5 8 4 11 14 7 9 14 14 13 12
17 18 18 18 17 17 16 16 16 15 15 14 14 12 8 4 4 6 2 2 0 1 1 6 0 4 7 7 6 2 4 3 2 2 2 2 3 4 4 3 3 6 6 10 9 6 12 3 8 16 23 18 17 13
17 19 18 17 17 17 17 16 14 14 14 13 13 10 1 4 7 3 2 3 2 3 2 5 7 1 5 6 9 8 5 3 2 2 4 4 2 4 4 4 4 9 7 5 5 13 13 20 21 20 18 20 18 13
19 19 17 18 17 16 15 15 14 13 12 12 10 4 5 7 7 2 1 2 2 3 3 3 4 4 2 3 5 8 4 4 3 3 3 3 4 4 3 2 5 18 18 14 9 8 12 19 19 21 19 18 20 12
19 17 16 17 15 16 15 13 13 12 10 8 4 3 1 4 2 3 4 4 5 2 2 3 4 2 2 3 4 3 4 3 2 2 3 2 4 4 4 5 18 17 18 19 19 13 6 14 9 7 7 12 10 10
17 17 16 16 16 15 14 13 11 9 7 6 3 4 7 9 6 1 2 4 3 2 1 1 3 2 2 3 3 3 3 3 5 3 3 3 3 3 4 15 17 15 18 19 20 16 7 9 11 12 9 10 9 9
18 17 17 17 15 14 14 12 9 7 4 2 2 4 2 1 2 3 7 5 1 2 1 1 1 3 1 1 2 2 2 4 1 2 2 1 2 4 7 11 14 12 17 20 20 22 19 18 15 15 13 6 2 6
17 17 17 16 14 13 13 11 7 6 2 2 2 1 3 2 10 8 3 1 1 2 2 3 1 3 4 3 2 2 1 1 2 1 3 3 2 3 6 7 7 8 12 17 21 24 18 20 18 19 18 16 15 9
17 18 17 17 16 11 9 8 4 6 4 1 2 2 1 3 1 1 2 2 0 2 2 4 5 3 1 3 3 3 3 3 2 2 3 2 2 7 8 8 6 4 5 9 9 12 16 16 15 16 16 17 17 18
17 18 18 17 17 12 7 5 3 1 3 3 2 2 2 0 1 1 3 1 2 4 4 4 5 5 2 4 2 3 3 2 2 3 4 4 3 7 7 7 9 5 2 7 7 8 10 14 14 12 13 15 16 18
17 18 18 17 17 14 7 6 10 11 8 1 1 2 4 3 5 3 5 6 5 4 3 3 4 3 1 2 2 3 3 3 4 5 2 3 6 7 7 6 8 9 4 4 7 7 7 8 11 14 14 15 17 19
18 19 18 17 16 15 8 7 5 4 2 2 4 5 3 2 2 2 3 4 7 4 7 1 1 3 3 2 1 5 2 5 4 4 2 4 6 7 7 6 5 8 9 3 2 3 6 7 9 10 11 13 16 18
19 20 18 11 8 10 10 6 8 3 2 4 2 2 1 1 1 2 2 4 5 4 4 3 2 4 4 5 4 5 5 3 1 4 3 4 5 5 6 6 7 8 7 7 2 4 2 1 3 5 6 7 10 11
20 18 2 5 12 12 5 7 4 2 3 3 2 3 1 5 4 4 3 4 4 5 4 4 4 4 4 3 4 2 4 3 4 3 4 1 2 4 5 7 7 6 6 7 6 4 3 3 3 3 2 3 3 5
15 4 5 7 19 17 9 4 3 4 4 2 2 1 4 3 3 3 1 4 3 4 2 3 4 0 2 3 2 3 2 3 4 4 3 4 3 5 7 7 7 5 4 6 6 6 5 4 4 4 6 4 3 4
4 5 16 15 14 5 2 3 3 2 4 2 4 4 1 2 2 2 3 2 4 4 3 1 3 5 2 2 1 2 2 3 2 3 4 3 4 6 5 6 6 4 1 4 6 6 6 7 5 2 4 4 5 6
10 14 23 17 5 2 2 2 4 3 4 3 2 1 2 2 3 3 2 2 1 1 4 4 5 2 1 2 3 3 2 1 2 3 3 5 3 4 5 5 5 4 5 2 5 4 2 5 4 1 3 4 3 3
20 20 18 9 9 1 3 4 3 2 3 4 0 1 2 3 2 1 2 0 3 3 5 3 2 3 5 4 4 4 3 2 1 4 5 6 5 6 6 3 2 2 3 4 4 6 5 6 5 3 3 3 4 4
8 2 4 6 3 3 3 2 3 4 3 1 3 3 3 2 1 1 2 2 4 2 2 3 4 4 4 4 5 4 3 3 3 4 5 4 4 3 5 5 3 4 4 2 3 3 5 3 3 4 5 5 4 4
5 7 1 3 2 2 2 3 4 3 0 4 2 3 3 2 2 2 2 3 3 4 5 5 3 4 4 4 5 6 6 5 3 4 4 1 4 4 4 4 4 4 5 3 3 3 2 1 3 5 6 7 5 4
8 2 2 2 2 4 8 1 0 3 2 4 1 1 2 4 4 5 1 1 2 3 4 3 3 3 5 3 4 3 3 4 3 3 4 3 3 4 5 5 4 7 6 6 1 1 2 3 6 5 5 4 5 5
2 1 2 3 3 5 3 3 3 2 3 3 5 5 4 2 1 3 5 4 5 6 5 2 3 4 5 6 5 4 3 4 4 3 3 4 5 5 5 4 4 4 3 3 4 4 5 5 5 5 5 5 6 4
4 6 5 6 4 2 4 3 4 2 3 2 3 3 4 2 4 2 1 2 2 3 1 2 3 2 4 3 3 3 3 5 6 3 3 3 3 4 4 4 5 4 3 5 5 5 4 4 5 5 5 5 7 6
1 4 7 5 2 1 3 2 2 3 1 2 4 2 1 3 3 2 3 1 1 3 6 5 4 2 1 3 5 3 4 4 5 4 3 4 4 4 4 3 4 5 4 3 5 6 6 3 5 6 5 6 7 6
2 5 5 4 2 6 5 3 1 2 5 5 1 5 4 3 2 3 3 3 3 3 2 4 4 3 3 3 2 4 5 5 6 5 3 4 3 5 6 5 4 2 1 5 5 5 5 5 5 5 5 4 3 4
6 3 4 2 3 3 5 2 3 4 2 7 6 3 14 6 4 3 5 2 3 5 4 3 4 4 5 4 2 2 1 2 5 6 5 4 3 4 4 4 4 8 5 4 5 5 5 5 5 5 5 4 4 4
4 4 0 6 5 5 5 7 5 3 2 3 5 6 7 2 3 3 3 2 3 3 1 3 3 4 9 8 8 8 8 7 9 9 7 3 3 4 3 4 4 3 4 4 7 5 6 6 5 3 3 3 1 3
6 4 4 3 2 5 7 8 3 6 3 4 4 3 2 3 2 2 3 2 2 7 8 7 5 8 8 8 8 9 8 7 7 6 5 4 1 4 4 4 5 4 3 5 5 6 5 6 7 4 4 4 3 3
4 3 4 3 5 4 4 6 10 5 4 3 3 3 2 0 4 3 4 5 8 7 8 7 6 5 6 6 6 7 6 5 8 9 6 4 5 6 6 5 4 5 5 7 5 4 4 4 3 5 5 4 5 5
1 5 5 4 5 4 2 3 5 5 4 2 1 1 2 2 1 3 3 5 6 6 5 6 6 7 8 8 8 8 9 4 4 5 7 5 5 6 5 5 5 5 5 5 4 4 3 3 3 3 5 5 6 5
3 3 3 2 2 2 2 4 5 4 2 3 3 5 4 4 2 3 2 4 5 6 5 5 6 8 9 11 9 7 7 5 8 10 11 10 10 9 5 5 5 5 6 5 4 5 7 7 6 6 5 6 7 6
Wind_Direction
307 307 311 311 312 317 321 319 323 321 320 323 322 321 316 309 300 252 250 178 157 204 283 274 292 291 280 252 284 320 336 6 347 17 3 339 333 326 62 36 19 42 329 354 338 58 54 348 353 59 300 358 9 360
303 304 307 308 314 322 323 324 321 321 328 329 323 316 313 308 294 191 233 144 140 124 268 265 268 267 271 266 277 167 184 340 360 23 359 297 313 342 2 59 350 57 26 286 23 184 179 66 307 282 9 11 5 351
305 305 306 311 320 325 326 325 325 328 330 328 325 325 332 330 274 184 117 106 100 301 286 309 292 277 349 337 256 134 103 8 335 196 226 292 32 339 6 37 24 5 3 35 321 134 3 316 302 360 357 348 341 336
304 306 312 318 324 328 326 331 331 334 331 332 335 332 331 4 101 130 137 181 326 94 56 287 215 15 356 15 23 55 126 107 300 39 52 54 42 354 328 307 63 13 342 316 285 283 329 1 341 336 321 324 318 316
306 307 314 323 330 332 332 334 336 333 333 341 340 338 8 133 150 149 120 198 196 123 199 286 318 101 29 30 29 29 49 57 42 31 39 34 348 348 326 348 11 4 340 330 278 286 277 271 287 289 296 301 297 309
308 310 321 329 334 333 335 338 337 335 339 342 344 27 122 138 152 152 310 272 227 130 91 12 282 360 111 42 76 62 43 33 39 28 33 36 330 351 31 312 316 334 319 316 300 257 238 260 270 278 283 283 279 283
308 316 324 333 333 333 335 341 335 334 340 335 344 22 37 146 131 198 193 201 166 98 44 331 319 285 18 16 17 15 30 62 55 81 55 358 5 15 13 343 324 339 339 347 347 347 271 257 265 292 251 261 271 286
315 322 325 334 333 333 336 344 335 332 342 334 314 38 60 91 81 354 269 117 104 101 92 302 274 324 186 331 357 8 20 17 22 20 27 19 4 13 28 320 341 4 351 350 356 357 320 311 319 301 252 234 271 258
320 323 328 330 332 331 334 342 335 336 315 263 267 319 22 205 225 217 174 141 102 129 288 268 155 271 201 70 63 46 52 36 359 42 37 24 8 49 249 328 360 5 8 355 1 15 13 11 2 7 13 30 329 318
318 318 315 320 321 327 333 341 340 333 195 156 29 9 288 244 121 114 45 152 185 239 241 250 216 258 169 161 184 106 91 306 38 60 127 66 22 253 292 314 318 356 357 1 14 12 11 22 20 24 28 18 16 13
318 315 313 311 313 321 321 331 342 104 99 76 236 241 251 168 48 108 281 188 220 283 202 231 201 228 224 177 178 198 174 172 76 230 97 26 29 342 335 320 325 330 9 18 28 24 18 16 22 22 18 15 11 359
315 311 310 310 312 318 317 312 165 143 193 212 259 250 108 213 294 285 254 299 143 242 206 209 224 195 235 105 127 191 225 142 80 129 66 10 346 323 327 319 317 340 39 27 23 10 28 40 25 14 20 21 14 12
312 307 307 306 307 307 303 270 216 241 348 320 225 250 107 252 17 325 346 327 342 297 272 218 270 156 251 141 205 160 57 42 90 50 22 249 286 313 320 319 317 328 42 84 39 24 27 35 40 35 30 23 16 16
313 309 307 306 302 296 290 275 241 159 136 170 192 320 151 349 279 253 223 229 249 266 302 299 249 174 191 120 283 75 74 51 60 29 284 257 278 296 315 315 338 322 335 45 129 30 15 33 46 39 39 44 41 30
316 314 313 294 309 298 300 283 176 169 146 240 149 279 22 252 234 244 288 355 298 271 320 1 27 81 16 50 28 45 44 35 107 235 236 242 258 285 303 316 322 326 326 338 16 195 208 36 65 55 48 53 55 55
324 315 256 306 312 305 275 120 147 181 249 230 261 22 284 60 337 353 330 305 294 308 348 46 60 58 35 80 54 31 85 226 271 240 242 216 260 287 295 309 315 305 322 338 353 352 217 228 205 181 177 130 98 68
323 234 205 353 345 329 160 144 143 223 235 261 285 9 131 160 194 231 225 282 301 34 335 71 49 142 80 74 48 66 141 214 240 285 277 232 240 258 285 305 312 314 332 348 360 12 25 101 90 58 47 38 70 169
238 289 334 350 347 312 202 197 235 249 266 262 93 271 337 176 200 301 264 294 49 351 29 346 105 41 49 69 353 256 202 247 253 313 315 270 290 294 291 287 291 327 72 17 56 34 24 29 39 47 48 1 54 39
276 291 293 304 309 340 308 260 128 247 249 173 184 212 164 225 230 182 196 312 141 143 70 33 59 84 233 206 172 204 201 180 268 295 291 297 322 319 320 312 332 32 93 68 70 64 12 17 17 15 48 35 46 21
290 268 262 250 183 208 296 282 105 181 272 243 149 258 185 210 238 129 169 68 83 70 42 61 179 207 171 213 174 176 185 201 60 357 326 322 312 356 340 295 310 121 126 85 51 58 28 10 13 9 49 30 78 45
317 276 95 136 154 213 250 285 308 217 260 244 247 157 211 271 122 190 213 171 70 133 123 187 205 224 204 172 159 148 186 186 234 193 238 283 299 357 351 340 43 58 83 114 85 48 55 22 342 11 31 62 58 54
265 334 342 183 271 201 250 239 184 252 68 233 307 176 197 213 202 235 219 78 164 196 167 165 208 192 205 202 189 181 188 218 294 321 319 43 30 16 349 333 63 46 41 48 141 105 90 7 53 42 51 85 85 60
308 147 256 260 255 45 255 24 209 248 237 264 9 221 73 136 257 326 334 271 213 205 152 154 217 227 212 179 151 160 167 87 40 42 32 28 31 22 37 49 46 48 25 7 334 80 91 87 61 75 57 59 67 62
4 311 300 306 149 242 306 249 206 83 331 343 338 308 73 112 300 12 11 347 331 330 15 23 103 40 43 59 77 102 126 115 95 39 25 66 50 22 59 40 42 52 17 346 6 26 62 83 62 58 67 70 59 75
56 292 105 289 265 269 257 261 69 39 289 313 297 260 154 174 87 66 277 293 279 73 297 335 1 65 110 117 123 142 177 139 129 138 296 117 117 83 42 36 35 16 8 36 8 47 70 76 71 72 77 75 74 59
113 242 161 238 246 158 346 55 324 306 324 291 250 291 98 80 75 177 236 140 22 178 222 193 184 139 1 131 155 184 223 194 120 137 236 140 142 124 120 106 54 353 359 68 53 39 41 85 94 74 70 70 90 74
261 261 233 230 212 89 12 321 325 258 247 219 324 356 325 52 26 266 267 230 222 231 190 194 165 162 155 165 205 183 188 177 167 182 163 138 128 124 139 139 130 209 73 63 66 62 48 40 63 92 79 63 89 85
237 258 213 252 113 183 176 135 228 235 249 120 141 344 342 12 260 241 222 255 222 289 209 182 206 153 126 173 230 359 336 135 71 91 72 70 64 91 110 108 116 126 95 83 84 68 63 53 41 54 61 56 38 27
239 248 91 276 177 175 214 202 206 191 213 113 125 187 189 221 235 254 301 232 227 236 198 208 320 57 73 65 48 45 48 58 78 78 80 67 55 356 38 105 148 133 109 96 73 70 63 64 30 359 29 110 59 16
252 171 202 263 263 244 226 172 166 127 79 98 103 48 18 280 276 322 328 358 48 69 76 78 73 80 97 94 85 63 46 49 50 81 88 70 335 308 21 65 74 90 134 90 59 40 56 61 32 359 20 61 54 41
216 100 36 297 250 263 231 121 109 89 82 73 85 114 151 200 326 307 354 21 81 90 80 72 65 75 95 104 109 95 64 15 56 59 59 41 22 31 29 34 53 58 68 76 72 67 55 41 40 48 31 24 43 81
177 188 185 241 275 265 201 139 105 80 137 97 56 95 101 82 72 328 328 83 81 91 103 102 95 93 94 87 82 88 96 100 69 58 54 51 45 31 20 13 33 76 82 81 67 73 79 99 57 84 39 29 44 84
174 211 224 261 295 319 314 158 127 92 128 156 183 185 174 133 110 236 346 51 128 141 131 111 101 111 114 118 122 113 101 100 102 91 80 76 70 51 33 16 19 54 81 63 45 45 49 55 60 69 56 51 54 44